User: anonymous   Login
Location: Unspecified
(0.0000°N, 0.0000°E)
Time: 19:44:00
(UTC+00:00)
Language:

GONETS M 10 (M20) - Orbit

View from above orbital plane
View from above orbital plane
View from above satellite
View from above satellite

Ground track
Ground track

The orbit data is extracted from the following two-line orbital elements,

1 40063U 14036C   21025.68502237  .00000002  00000-0 -58506-4 0  9991
2 40063  82.5104  90.1870 0022704 113.5952 246.7515 12.42889592297919
Epoch (UTC): 25 January 2021 16:26:25
Eccentricity: 0.0022704
inclination: 82.5104°
perigee height: 1476 km
apogee height: 1512 km
right ascension of ascending node: 90.1870°
argument of perigee: 113.5952°
revolutions per day: 12.42889592
mean anomaly at epoch: 246.7515°
orbit number at epoch: 29791

The dashed part of the orbit path shows where the satellite is in the earth's shadow,  

DLR